Time,TemperatureF,DewpointF,PressureIn,WindDirection,WindDirectionDegrees,WindSpeedMPH,WindSpeedGustMPH,Humidity,HourlyPrecipIn,Conditions,Clouds,dailyrainin,SoftwareType,DateUTC
2013-04-26 09:38:00,52.9,40.0,30.22,NNE,29,3.0,6.0,61,0.00,,,0.00,weatherlink.com 1.10,2013-04-26 16:38:00,
2013-04-26 09:52:00,54.1,41.0,30.21,NE,47,3.0,6.0,62,0.00,,,0.00,weatherlink.com 1.10,2013-04-26 16:52:00,
2013-04-26 10:07:00,55.5,40.0,30.21,East,90,3.0,5.0,57,0.00,,,0.00,weatherlink.com 1.10,2013-04-26 17:07:00,
2013-04-26 10:23:00,56.6,41.0,30.21,SE,129,1.0,6.0,56,0.00,,,0.00,weatherlink.com 1.10,2013-04-26 17:23:00,
2013-04-26 10:38:00,58.5,39.0,30.21,SSW,193,1.0,6.0,49,0.00,,,0.00,weatherlink.com 1.10,2013-04-26 17:38:00,
2013-04-26 10:53:00,59.2,41.0,30.22,NW,316,1.0,4.0,51,0.00,,,0.00,weatherlink.com 1.10,2013-04-26 17:53:00,
2013-04-26 11:08:00,59.3,39.0,30.21,WNW,288,4.0,10.0,47,0.00,,,0.00,weatherlink.com 1.10,2013-04-26 18:08:00,
2013-04-26 11:23:00,59.7,41.0,30.21,WSW,245,6.0,8.0,50,0.00,,,0.00,weatherlink.com 1.10,2013-04-26 18:23:00,
2013-04-26 11:38:00,59.9,40.0,30.21,SW,226,8.0,8.0,49,0.00,,,0.00,weatherlink.com 1.10,2013-04-26 18:38:00,
2013-04-26 11:53:00,60.0,41.0,30.21,West,271,6.0,10.0,50,0.00,,,0.00,weatherlink.com 1.10,2013-04-26 18:53:00,
2013-04-26 12:08:00,60.4,41.0,30.21,WSW,252,6.0,12.0,50,0.00,,,0.00,weatherlink.com 1.10,2013-04-26 19:08:00,
2013-04-26 12:23:00,60.3,40.0,30.21,SW,235,8.0,11.0,48,0.00,,,0.00,weatherlink.com 1.10,2013-04-26 19:23:00,
2013-04-26 12:38:00,61.1,43.0,30.21,West,268,8.0,11.0,51,0.00,,,0.00,weatherlink.com 1.10,2013-04-26 19:38:00,
2013-04-26 12:53:00,61.3,43.0,30.21,WNW,295,3.0,11.0,52,0.00,,,0.00,weatherlink.com 1.10,2013-04-26 19:53:00,
2013-04-26 13:08:00,62.0,43.0,30.20,WNW,295,7.0,11.0,51,0.00,,,0.00,weatherlink.com 1.10,2013-04-26 20:08:00,
2013-04-26 13:23:00,62.8,45.0,30.20,WNW,283,7.0,12.0,52,0.00,,,0.00,weatherlink.com 1.10,2013-04-26 20:23:00,
2013-04-26 13:38:00,63.0,43.0,30.20,WNW,287,3.0,11.0,48,0.00,,,0.00,weatherlink.com 1.10,2013-04-26 20:38:00,
2013-04-26 13:53:00,63.1,43.0,30.20,WSW,245,4.0,10.0,49,0.00,,,0.00,weatherlink.com 1.10,2013-04-26 20:53:00,
2013-04-26 14:08:00,63.8,42.0,30.20,West,262,6.0,14.0,46,0.00,,,0.00,weatherlink.com 1.10,2013-04-26 21:08:00,
2013-04-26 14:23:00,64.0,41.0,30.19,WSW,253,7.0,12.0,43,0.00,,,0.00,weatherlink.com 1.10,2013-04-26 21:23:00,
2013-04-26 14:38:00,64.8,43.0,30.19,WNW,291,9.0,11.0,45,0.00,,,0.00,weatherlink.com 1.10,2013-04-26 21:38:00,
2013-04-26 14:53:00,64.8,42.0,30.19,West,276,8.0,19.0,44,0.00,,,0.00,weatherlink.com 1.10,2013-04-26 21:53:00,
2013-04-26 15:08:00,65.4,43.0,30.19,WNW,301,6.0,10.0,45,0.00,,,0.00,weatherlink.com 1.10,2013-04-26 22:08:00,
2013-04-26 15:23:00,65.6,41.0,30.18,WNW,300,7.0,13.0,40,0.00,,,0.00,weatherlink.com 1.10,2013-04-26 22:23:00,
2013-04-26 15:38:00,65.8,41.0,30.18,NW,306,5.0,13.0,41,0.00,,,0.00,weatherlink.com 1.10,2013-04-26 22:38:00,
2013-04-26 15:53:00,66.4,41.0,30.17,WNW,288,5.0,13.0,40,0.00,,,0.00,weatherlink.com 1.10,2013-04-26 22:53:00,
2013-04-26 16:08:00,66.3,41.0,30.17,West,262,6.0,13.0,40,0.00,,,0.00,weatherlink.com 1.10,2013-04-26 23:08:00,
2013-04-26 16:23:00,65.7,40.0,30.17,WSW,256,7.0,9.0,39,0.00,,,0.00,weatherlink.com 1.10,2013-04-26 23:23:00,
2013-04-26 16:38:00,66.5,42.0,30.16,West,274,6.0,8.0,41,0.00,,,0.00,weatherlink.com 1.10,2013-04-26 23:38:00,
2013-04-26 16:53:00,66.5,44.0,30.16,SW,219,4.0,7.0,44,0.00,,,0.00,weatherlink.com 1.10,2013-04-26 23:53:00,
2013-04-26 17:08:00,66.9,41.0,30.16,WNW,294,6.0,9.0,39,0.00,,,0.00,weatherlink.com 1.10,2013-04-27 00:08:00,
2013-04-26 17:23:00,67.0,43.0,30.16,West,270,5.0,11.0,42,0.00,,,0.00,weatherlink.com 1.10,2013-04-27 00:23:00,
2013-04-26 17:38:00,67.0,42.0,30.15,WNW,288,5.0,11.0,40,0.00,,,0.00,weatherlink.com 1.10,2013-04-27 00:38:00,
2013-04-26 17:53:00,64.9,41.0,30.15,West,270,5.0,11.0,42,0.00,,,0.00,weatherlink.com 1.10,2013-04-27 00:53:00,
2013-04-26 18:08:00,64.9,43.0,30.15,WNW,285,4.0,6.0,45,0.00,,,0.00,weatherlink.com 1.10,2013-04-27 01:08:00,
2013-04-26 18:23:00,65.6,41.0,30.15,WNW,295,5.0,7.0,41,0.00,,,0.00,weatherlink.com 1.10,2013-04-27 01:23:00,
2013-04-26 18:38:00,64.2,41.0,30.15,West,279,3.0,8.0,43,0.00,,,0.00,weatherlink.com 1.10,2013-04-27 01:38:00,
2013-04-26 18:53:00,63.2,42.0,30.15,West,276,4.0,10.0,46,0.00,,,0.00,weatherlink.com 1.10,2013-04-27 01:53:00,
2013-04-26 19:08:00,62.0,43.0,30.15,NW,311,3.0,6.0,51,0.00,,,0.00,weatherlink.com 1.10,2013-04-27 02:08:00,
2013-04-26 19:24:00,61.1,43.0,30.15,NW,309,2.0,3.0,52,0.00,,,0.00,weatherlink.com 1.10,2013-04-27 02:24:00,
2013-04-26 19:39:00,59.6,43.0,30.14,NW,311,0.0,1.0,54,0.00,,,0.00,weatherlink.com 1.10,2013-04-27 02:39:00,
2013-04-26 19:54:00,57.0,41.0,30.15,NW,311,0.0,0.0,56,0.00,,,0.00,weatherlink.com 1.10,2013-04-27 02:54:00,
2013-04-26 20:09:00,53.8,42.0,30.15,NNE,16,0.0,1.0,65,0.00,,,0.00,weatherlink.com 1.10,2013-04-27 03:09:00,
2013-04-26 20:24:00,51.0,41.0,30.16,NNW,328,0.0,1.0,69,0.00,,,0.00,weatherlink.com 1.10,2013-04-27 03:24:00,
2013-04-26 20:39:00,48.6,41.0,30.16,NNW,327,0.0,1.0,75,0.00,,,0.00,weatherlink.com 1.10,2013-04-27 03:39:00,
2013-04-26 20:54:00,47.0,41.0,30.17,NNE,13,0.0,1.0,80,0.00,,,0.00,weatherlink.com 1.10,2013-04-27 03:54:00,
2013-04-26 21:09:00,45.1,40.0,30.17,NNE,15,0.0,0.0,83,0.00,,,0.00,weatherlink.com 1.10,2013-04-27 04:09:00,
2013-04-26 21:24:00,43.9,40.0,30.18,SE,131,0.0,1.0,86,0.00,,,0.00,weatherlink.com 1.10,2013-04-27 04:24:00,
2013-04-26 21:39:00,43.2,40.0,30.18,SE,131,0.0,0.0,88,0.00,,,0.00,weatherlink.com 1.10,2013-04-27 04:39:00,
2013-04-26 21:54:00,42.2,39.0,30.17,SE,128,0.0,1.0,88,0.00,,,0.00,weatherlink.com 1.10,2013-04-27 04:54:00,
2013-04-26 22:09:00,41.2,39.0,30.17,SE,128,0.0,0.0,90,0.00,,,0.00,weatherlink.com 1.10,2013-04-27 05:09:00,
2013-04-26 22:24:00,40.7,39.0,30.17,SE,128,0.0,1.0,92,0.00,,,0.00,weatherlink.com 1.10,2013-04-27 05:24:00,
2013-04-26 22:39:00,39.6,37.0,30.17,SE,129,0.0,0.0,91,0.00,,,0.00,weatherlink.com 1.10,2013-04-27 05:39:00,
2013-04-26 22:54:00,38.8,37.0,30.17,SE,129,0.0,0.0,94,0.00,,,0.00,weatherlink.com 1.10,2013-04-27 05:54:00,
2013-04-26 23:09:00,38.0,37.0,30.16,SE,128,0.0,0.0,94,0.00,,,0.00,weatherlink.com 1.10,2013-04-27 06:09:00,
2013-04-26 23:24:00,37.3,36.0,30.16,SE,129,0.0,0.0,95,0.00,,,0.00,weatherlink.com 1.10,2013-04-27 06:24:00,
2013-04-26 23:39:00,37.1,36.0,30.16,SE,128,0.0,1.0,96,0.00,,,0.00,weatherlink.com 1.10,2013-04-27 06:39:00,
2013-04-26 23:54:00,37.0,36.0,30.16,SE,129,0.0,0.0,96,0.00,,,0.00,weatherlink.com 1.10,2013-04-27 06:54:00,